GW2002 Weather Reports


Display with metric or nautical units.
time (UTC)temp
F
wind
direction
speed
MPH
gust
MPH
rain 1hr
in
rain 24hr
in
rain mn
in
humidity
%
barometer
mb
20260906173439 94 168 6.0 6.0 0.00 0.00 0.00 53 1015.1
20260906172939 94 163 4.0 8.0 0.00 0.00 0.00 53 1015.2
20260906172436 94 172 3.0 5.0 0.00 0.00 0.00 54 1015.2
20260906171931 94 180 5.0 8.0 0.00 0.00 0.00 53 1015.2
20260906171425 94 169 4.0 6.0 0.00 0.00 0.00 53 1015.4
20260906170921 94 162 5.0 5.0 0.00 0.00 0.00 53 1015.5
20260906170417 95 165 5.0 5.0 0.00 0.00 0.00 53 1015.5
20260906165913 94 167 4.0 4.0 0.00 0.00 0.00 53 1015.5
20260906165412 93 171 4.0 5.0 0.00 0.00 0.00 58 1015.8
20260906164908 93 120 2.0 6.0 0.00 0.00 0.00 57 1015.8
20260906164406 94 180 6.0 8.0 0.00 0.00 0.00 54 1015.9
20260906163903 93 121 1.0 3.0 0.00 0.00 0.00 56 1015.8
20260906163359 92 180 2.0 4.0 0.00 0.00 0.00 57 1016.0
20260906162856 92 156 4.0 4.0 0.00 0.00 0.00 57 1016.0
20260906162355 91 44 3.0 4.0 0.00 0.00 0.00 59 1016.0
20260906161851 91 176 3.0 4.0 0.00 0.00 0.00 58 1016.1
20260906161350 91 176 4.0 5.0 0.00 0.00 0.00 59 1016.0
20260906160849 91 175 4.0 6.0 0.00 0.00 0.00 60 1016.1
20260906160343 91 199 6.0 6.0 0.00 0.00 0.00 60 1015.9
20260906155841 91 165 3.0 5.0 0.00 0.00 0.00 61 1016.0
20260906155335 90 41 3.0 4.0 0.00 0.00 0.00 62 1015.8
20260906154832 90 170 2.0 4.0 0.00 0.00 0.00 62 1016.1
20260906154326 89 121 1.0 3.0 0.00 0.00 0.00 64 1015.9
20260906153824 89 64 2.0 3.0 0.00 0.00 0.00 64 1015.9
20260906153324 89 70 0.0 4.0 0.00 0.00 0.00 64 1015.4
20260906152819 88 143 3.0 3.0 0.00 0.00 0.00 66 1015.5
20260906152314 88 142 0.0 4.0 0.00 0.00 0.00 65 1015.7
20260906151814 88 167 6.0 6.0 0.00 0.00 0.00 65 1015.8
20260906151309 87 170 4.0 6.0 0.00 0.00 0.00 66 1015.7
20260906150804 86 173 6.0 7.0 0.00 0.00 0.00 67 1015.7
20260906150300 86 144 4.0 7.0 0.00 0.00 0.00 68 1015.8
20260906145759 86 178 5.0 7.0 0.00 0.00 0.00 67 1015.7
20260906145258 86 154 5.0 9.0 0.00 0.00 0.00 68 1015.5
20260906144754 85 137 3.0 5.0 0.00 0.00 0.00 69 1015.4
20260906144254 85 164 5.0 7.0 0.00 0.00 0.00 68 1015.8
20260906143753 85 101 3.0 9.0 0.00 0.00 0.00 68 1015.9
20260906143250 85 170 5.0 5.0 0.00 0.00 0.00 68 1015.8
20260906142750 85 171 4.0 7.0 0.00 0.00 0.00 69 1015.7
20260906142246 84 140 4.0 5.0 0.00 0.00 0.00 70 1016.2
20260906141744 84 148 6.0 7.0 0.00 0.00 0.00 69 1016.0
20260906141239 84 106 2.0 4.0 0.00 0.00 0.00 70 1015.8
20260906140738 83 133 3.0 6.0 0.00 0.00 0.00 72 1015.8
20260906140233 82 119 3.0 5.0 0.00 0.00 0.00 74 1015.9
20260906135730 81 130 3.0 5.0 0.00 0.00 0.00 75 1015.5
20260906135226 81 176 1.0 4.0 0.00 0.00 0.00 75 1015.8
20260906134721 81 86 2.0 3.0 0.00 0.00 0.00 77 1015.8
20260906134217 80 49 2.0 3.0 0.00 0.00 0.00 78 1015.7
20260906133712 80 81 1.0 2.0 0.00 0.00 0.00 77 1015.8
20260906133208 79 57 3.0 3.0 0.00 0.00 0.00 79 1015.7
20260906132703 78 154 1.0 3.0 0.00 0.00 0.00 83 1015.7
20260906132158 77 155 1.0 3.0 0.00 0.00 0.00 86 1015.7
20260906131654 76 120 1.0 3.0 0.00 0.00 0.00 88 1015.2
20260906131148 76 136 1.0 3.0 0.00 0.00 0.00 91 1015.4
20260906130644 75 148 2.0 3.0 0.00 0.00 0.00 92 1015.4
20260906130139 75 171 2.0 3.0 0.00 0.00 0.00 93 1015.4
20260906125637 74 180 3.0 4.0 0.00 0.00 0.00 94 1015.2
20260906125136 74 173 3.0 4.0 0.00 0.00 0.00 94 1015.0
20260906124631 73 175 3.0 4.0 0.00 0.00 0.00 94 1015.1
20260906124127 73 175 3.0 4.0 0.00 0.00 0.00 95 1015.0
20260906123626 73 174 3.0 4.0 0.00 0.00 0.00 95 1014.9
20260906123121 73 168 4.0 4.0 0.00 0.00 0.00 95 1014.9
20260906122620 73 178 3.0 4.0 0.00 0.00 0.00 94 1015.0
20260906122116 73 176 3.0 4.0 0.00 0.00 0.00 94 1014.9
20260906121612 73 180 4.0 4.0 0.00 0.00 0.00 94 1014.9
20260906121108 73 176 4.0 4.0 0.00 0.00 0.00 94 1014.8
20260906120603 72 169 3.0 4.0 0.00 0.00 0.00 94 1014.7
20260906120101 72 176 3.0 4.0 0.00 0.00 0.00 94 1014.6
20260906115601 72 182 4.0 4.0 0.00 0.00 0.00 95 1014.4
20260906115056 72 178 4.0 4.0 0.00 0.00 0.00 94 1014.6
20260906114555 72 180 4.0 4.0 0.00 0.00 0.00 94 1014.5
20260906114051 72 180 3.0 4.0 0.00 0.00 0.00 94 1014.3
20260906113550 72 175 4.0 5.0 0.00 0.00 0.00 94 1014.3
20260906113046 72 181 4.0 4.0 0.00 0.00 0.00 94 1014.5
20260906112546 72 180 3.0 4.0 0.00 0.00 0.00 94 1014.2
20260906112042 72 178 4.0 4.0 0.00 0.00 0.00 94 1014.3
20260906111542 73 178 4.0 4.0 0.00 0.00 0.00 93 1014.3
20260906111037 73 170 3.0 4.0 0.00 0.00 0.00 93 1014.2
20260906110537 73 179 3.0 3.0 0.00 0.00 0.00 93 1014.3
20260906110036 73 165 4.0 4.0 0.00 0.00 0.00 93 1014.3
20260906105531 73 183 3.0 4.0 0.00 0.00 0.00 93 1014.2
20260906105027 73 170 4.0 4.0 0.00 0.00 0.00 93 1014.1
20260906104526 73 173 3.0 4.0 0.00 0.00 0.00 93 1014.2
20260906104021 73 175 3.0 3.0 0.00 0.00 0.00 92 1014.1
20260906103519 73 183 4.0 4.0 0.00 0.00 0.00 93 1014.1
20260906103014 73 183 3.0 5.0 0.00 0.00 0.00 93 1014.1
20260906102514 73 170 2.0 3.0 0.00 0.00 0.00 92 1014.2
20260906102015 73 179 3.0 5.0 0.00 0.00 0.00 92 1014.2
20260906101509 73 175 3.0 4.0 0.00 0.00 0.00 92 1014.3
20260906101004 73 169 3.0 4.0 0.00 0.00 0.00 91 1014.3
20260906100459 73 174 3.0 5.0 0.00 0.00 0.00 92 1014.2
20260906095954 73 176 2.0 4.0 0.00 0.00 0.00 92 1014.1
20260906095449 73 182 4.0 4.0 0.00 0.00 0.00 92 1014.0
20260906094944 73 165 4.0 4.0 0.00 0.00 0.00 92 1014.0
20260906094438 73 164 4.0 4.0 0.00 0.00 0.00 92 1014.1
20260906093934 73 176 3.0 4.0 0.00 0.00 0.00 93 1013.8
20260906093430 73 180 3.0 4.0 0.00 0.00 0.00 93 1013.9
20260906092930 73 176 3.0 4.0 0.00 0.00 0.00 92 1013.9
20260906092429 73 182 4.0 4.0 0.00 0.00 0.00 92 1013.7
20260906091925 73 170 3.0 4.0 0.00 0.00 0.00 92 1014.0
20260906091421 73 180 4.0 4.0 0.00 0.00 0.00 91 1013.8
20260906090917 73 176 3.0 4.0 0.00 0.00 0.00 91 1013.7
20260906090412 73 175 2.0 4.0 0.00 0.00 0.00 91 1013.6
20260906085906 73 178 3.0 3.0 0.00 0.00 0.00 92 1013.8
20260906085406 73 178 3.0 3.0 0.00 0.00 0.00 92 1013.8
20260906084905 73 186 2.0 3.0 0.00 0.00 0.00 92 1013.9
20260906084400 74 183 3.0 4.0 0.00 0.00 0.00 92 1013.6
20260906083854 74 170 3.0 3.0 0.00 0.00 0.00 92 1013.7
20260906083350 74 173 3.0 3.0 0.00 0.00 0.00 92 1013.6
20260906082849 74 177 3.0 3.0 0.00 0.00 0.00 91 1013.6
20260906082344 74 173 3.0 4.0 0.00 0.00 0.00 92 1013.6
20260906081841 74 170 2.0 3.0 0.00 0.00 0.00 91 1013.5
20260906081336 74 166 2.0 4.0 0.00 0.00 0.00 92 1013.5
20260906080832 74 177 3.0 3.0 0.00 0.00 0.00 92 1013.5
20260906080328 74 185 3.0 3.0 0.00 0.00 0.00 92 1013.6
20260906075827 74 175 3.0 3.0 0.00 0.00 0.00 92 1013.4
20260906075327 74 175 2.0 3.0 0.00 0.00 0.00 92 1013.6
20260906074823 74 171 3.0 3.0 0.00 0.00 0.00 92 1013.5
20260906074322 75 173 3.0 3.0 0.00 0.00 0.00 91 1013.6
20260906073821 75 173 3.0 3.0 0.00 0.00 0.00 91 1013.5
20260906073322 75 168 2.0 3.0 0.00 0.00 0.00 91 1013.4
20260906072818 75 168 2.0 4.0 0.00 0.00 0.00 91 1013.5
20260906072314 75 181 3.0 3.0 0.00 0.00 0.00 91 1013.7
20260906071809 75 168 2.0 3.0 0.00 0.00 0.00 91 1013.5
20260906071304 75 165 2.0 3.0 0.00 0.00 0.00 91 1013.6
20260906070801 75 180 2.0 3.0 0.00 0.00 0.00 91 1013.6
20260906070256 75 174 2.0 3.0 0.00 0.00 0.00 91 1013.6
20260906065755 75 161 2.0 3.0 0.00 0.00 0.00 91 1013.7
20260906065251 75 178 2.0 3.0 0.00 0.00 0.00 91 1013.6
20260906064747 75 175 3.0 3.0 0.00 0.00 0.00 90 1013.8
20260906064242 75 180 2.0 3.0 0.00 0.00 0.00 89 1013.7
20260906063737 75 168 2.0 3.0 0.00 0.00 0.00 89 1013.8
20260906063233 75 179 2.0 3.0 0.00 0.00 0.00 89 1013.7
20260906062728 75 178 2.0 3.0 0.00 0.00 0.00 89 1014.0
20260906062227 75 162 2.0 2.0 0.00 0.00 0.00 89 1013.9
20260906061723 75 181 2.0 3.0 0.00 0.00 0.00 89 1014.0
20260906061219 75 173 2.0 3.0 0.00 0.00 0.00 89 1013.9
20260906060714 75 175 2.0 3.0 0.00 0.00 0.00 89 1014.0
20260906060212 75 169 2.0 2.0 0.00 0.00 0.00 88 1013.9
20260906055707 75 181 1.0 2.0 0.00 0.00 0.00 88 1013.9
20260906055202 76 166 2.0 3.0 0.00 0.00 0.00 88 1013.8
20260906054658 76 172 2.0 2.0 0.00 0.00 0.00 87 1014.2
20260906054158 76 166 2.0 3.0 0.00 0.00 0.00 88 1013.9
20260906053655 76 180 2.0 3.0 0.00 0.00 0.00 88 1014.0
20260906053150 75 147 1.0 2.0 0.00 0.00 0.00 88 1014.2
20260906052645 75 181 2.0 2.0 0.00 0.00 0.00 88 1014.0
20260906052141 76 170 2.0 2.0 0.00 0.00 0.00 88 1013.8
20260906051638 75 168 2.0 2.0 0.00 0.00 0.00 88 1014.1
20260906051137 76 162 2.0 2.0 0.00 0.00 0.00 88 1014.0
20260906050633 76 167 2.0 2.0 0.00 0.00 0.00 88 1014.0
20260906050128 76 168 2.0 3.0 0.00 0.00 0.00 86 1014.0
20260906045626 76 137 0.0 2.0 0.00 0.00 0.00 86 1014.0
20260906045122 76 179 2.0 2.0 0.00 0.00 0.00 86 1013.8
20260906044617 76 159 2.0 2.0 0.00 0.00 0.00 86 1013.9
20260906044113 76 125 0.0 2.0 0.00 0.00 0.00 86 1013.9
20260906043609 76 154 1.0 2.0 0.00 0.00 0.00 87 1013.8
20260906043104 76 160 1.0 2.0 0.00 0.00 0.00 87 1014.0
20260906042603 76 154 2.0 2.0 0.00 0.00 0.00 86 1013.9
20260906042058 76 156 2.0 2.0 0.00 0.00 0.00 86 1013.8
20260906041554 77 164 1.0 2.0 0.00 0.00 0.00 86 1013.9
20260906041049 77 147 0.0 2.0 0.00 0.00 0.00 85 1013.9
20260906040544 77 125 1.0 1.0 0.00 0.00 0.00 84 1013.7
20260906040039 77 176 1.0 2.0 0.00 0.00 0.00 85 1013.6
20260906035534 77 97 1.0 2.0 0.00 0.00 0.00 85 1013.7
20260906035031 77 172 1.0 2.0 0.00 0.00 0.00 85 1013.6
20260906034530 77 103 0.0 1.0 0.00 0.00 0.00 85 1013.6
20260906034025 77 154 0.0 2.0 0.00 0.00 0.00 87 1013.7
20260906033520 77 187 1.0 2.0 0.00 0.00 0.00 87 1013.5
20260906033016 77 168 1.0 2.0 0.00 0.00 0.00 86 1013.5
20260906032513 77 151 1.0 2.0 0.00 0.00 0.00 86 1013.5
20260906032012 78 131 0.0 2.0 0.00 0.00 0.00 84 1013.5
20260906031508 78 64 0.0 1.0 0.00 0.00 0.00 83 1013.3
20260906031003 78 79 0.0 1.0 0.00 0.00 0.00 84 1013.3
20260906030457 78 100 0.0 1.0 0.00 0.00 0.00 84 1013.2
20260906025957 78 64 0.0 1.0 0.00 0.00 0.00 84 1013.2
20260906025457 78 155 0.0 1.0 0.00 0.00 0.00 85 1013.2
20260906024956 78 65 0.0 2.0 0.00 0.00 0.00 84 1013.1
20260906024456 78 135 0.0 1.0 0.00 0.00 0.00 85 1012.9
20260906023956 78 82 0.0 1.0 0.00 0.00 0.00 85 1012.9
20260906023452 79 144 0.0 1.0 0.00 0.00 0.00 85 1012.9
20260906022947 79 72 1.0 2.0 0.00 0.00 0.00 84 1012.9
20260906022442 79 86 0.0 2.0 0.00 0.00 0.00 84 1012.9
20260906021937 78 190 1.0 2.0 0.00 0.00 0.00 86 1012.6
20260906021438 79 132 0.0 2.0 0.00 0.00 0.00 86 1012.7
20260906020932 79 196 0.0 2.0 0.00 0.00 0.00 87 1012.7
20260906020427 79 50 1.0 1.0 0.00 0.00 0.00 86 1012.6
20260906015921 79 49 0.0 2.0 0.00 0.00 0.00 86 1012.4
20260906015421 79 44 0.0 2.0 0.00 0.00 0.00 86 1012.2
20260906014920 79 156 0.0 1.0 0.00 0.00 0.00 87 1012.5
20260906014420 79 202 0.0 1.0 0.00 0.00 0.00 87 1012.3
20260906013916 80 64 0.0 2.0 0.00 0.00 0.00 86 1012.3
20260906013412 80 125 0.0 1.0 0.00 0.00 0.00 87 1012.4
20260906012907 80 158 0.0 1.0 0.00 0.00 0.00 86 1012.1
20260906012402 80 140 1.0 2.0 0.00 0.00 0.00 86 1012.3
20260906011901 80 180 2.0 4.0 0.00 0.00 0.00 86 1012.2
20260906011356 80 157 3.0 4.0 0.00 0.00 0.00 87 1012.2
20260906010852 80 166 4.0 4.0 0.00 0.00 0.00 86 1012.1
20260906010348 81 159 1.0 3.0 0.00 0.00 0.00 85 1012.1
20260906005843 81 168 2.0 4.0 0.00 0.00 0.00 84 1012.3
20260906005342 82 182 3.0 3.0 0.00 0.00 0.00 85 1011.8
20260906004842 83 174 4.0 4.0 0.00 0.00 0.00 82 1012.1
20260906004341 84 170 2.0 3.0 0.00 0.00 0.00 79 1012.0
20260906003836 85 189 5.0 5.0 0.00 0.00 0.00 79 1012.1
20260906003332 86 173 3.0 4.0 0.00 0.00 0.00 75 1012.1
20260906002827 86 176 3.0 4.0 0.00 0.00 0.00 75 1012.0
20260906002326 87 174 3.0 4.0 0.00 0.00 0.00 73 1012.1
20260906001822 87 176 4.0 4.0 0.00 0.00 0.00 73 1012.2
20260906001318 88 166 2.0 4.0 0.00 0.00 0.00 73 1012.1
20260906000813 88 167 3.0 4.0 0.00 0.00 0.00 71 1012.1
20260906000307 89 174 3.0 4.0 0.00 0.00 0.00 71 1012.1
20260905235802 89 173 3.0 3.0 0.00 0.00 0.00 70 1012.1
20260905235306 89 176 2.0 3.0 0.00 0.00 0.00 70 1012.3
20260905234758 90 160 1.0 2.0 0.00 0.00 0.00 70 1012.1
20260905234253 90 153 2.0 2.0 0.00 0.00 0.00 68 1011.7
20260905233748 91 150 1.0 2.0 0.00 0.00 0.00 69 1012.0
20260905233248 91 135 0.0 2.0 0.00 0.00 0.00 67 1012.0
20260905232747 92 181 1.0 2.0 0.00 0.00 0.00 65 1012.0
20260905232243 92 152 0.0 2.0 0.00 0.00 0.00 64 1011.8
20260905231739 92 104 1.0 1.0 0.00 0.00 0.00 60 1011.8
20260905231234 93 68 1.0 1.0 0.00 0.00 0.00 61 1011.8
20260905230730 93 76 0.0 1.0 0.00 0.00 0.00 61 1011.7
20260905230228 93 131 0.0 2.0 0.00 0.00 0.00 61 1011.7
20260905225727 93 144 0.0 1.0 0.00 0.00 0.00 61 1011.8
20260905225223 93 44 0.0 2.0 0.00 0.00 0.00 57 1011.7
20260905224722 94 75 0.0 1.0 0.00 0.00 0.00 55 1011.8
20260905224217 94 54 0.0 2.0 0.00 0.00 0.00 54 1011.8
20260905223714 95 58 1.0 2.0 0.00 0.00 0.00 49 1011.8
20260905223210 96 103 0.0 2.0 0.00 0.00 0.00 46 1011.7
20260905222706 97 119 2.0 2.0 0.00 0.00 0.00 46 1012.0
20260905222205 97 134 1.0 2.0 0.00 0.00 0.00 44 1011.8
20260905221701 97 154 2.0 3.0 0.00 0.00 0.00 44 1012.1
20260905221158 97 130 3.0 3.0 0.00 0.00 0.00 43 1012.0
20260905220653 97 172 3.0 3.0 0.00 0.00 0.00 44 1012.0
20260905220149 97 172 3.0 6.0 0.00 0.00 0.00 41 1011.7
20260905215648 98 158 5.0 6.0 0.00 0.00 0.00 42 1012.1
20260905215144 98 124 3.0 6.0 0.00 0.00 0.00 42 1011.7
20260905214640 97 166 4.0 4.0 0.00 0.00 0.00 43 1012.0
20260905214135 98 102 2.0 3.0 0.00 0.00 0.00 41 1012.3
20260905213630 98 84 2.0 6.0 0.00 0.00 0.00 41 1012.3
20260905213125 98 157 3.0 4.0 0.00 0.00 0.00 42 1012.4
20260905212621 98 158 5.0 5.0 0.00 0.00 0.00 41 1012.6
20260905212120 98 85 2.0 2.0 0.00 0.00 0.00 42 1012.4
20260905211615 98 144 0.0 3.0 0.00 0.00 0.00 43 1012.7
20260905211111 97 48 0.0 3.0 0.00 0.00 0.00 42 1012.8
20260905210608 97 154 2.0 3.0 0.00 0.00 0.00 43 1012.6
20260905210107 97 155 2.0 4.0 0.00 0.00 0.00 45 1013.0
20260905205606 97 157 3.0 4.0 0.00 0.00 0.00 43 1013.0
20260905205106 97 49 3.0 5.0 0.00 0.00 0.00 42 1013.0
20260905204600 98 62 4.0 5.0 0.00 0.00 0.00 41 1013.1
20260905204056 97 180 2.0 3.0 0.00 0.00 0.00 45 1013.1
20260905203555 97 182 3.0 4.0 0.00 0.00 0.00 42 1013.1
20260905203051 97 165 4.0 6.0 0.00 0.00 0.00 44 1013.0
20260905202546 97 181 6.0 10.0 0.00 0.00 0.00 43 1013.1
20260905202042 97 148 2.0 4.0 0.00 0.00 0.00 45 1013.0
20260905201537 97 97 0.0 2.0 0.00 0.00 0.00 45 1013.2
20260905201037 97 158 5.0 7.0 0.00 0.00 0.00 43 1013.2
20260905200532 97 182 4.0 6.0 0.00 0.00 0.00 44 1013.3
20260905200032 97 170 3.0 5.0 0.00 0.00 0.00 45 1013.5
20260905195526 97 190 2.0 4.0 0.00 0.00 0.00 44 1013.6
20260905195022 97 112 2.0 4.0 0.00 0.00 0.00 46 1013.6
20260905194521 97 87 1.0 3.0 0.00 0.00 0.00 45 1013.8
20260905194021 97 179 2.0 3.0 0.00 0.00 0.00 44 1013.7
20260905193521 96 175 2.0 3.0 0.00 0.00 0.00 45 1013.8
20260905193017 96 48 2.0 2.0 0.00 0.00 0.00 45 1013.9
20260905192512 96 60 2.0 3.0 0.00 0.00 0.00 49 1013.8
20260905192009 96 357 2.0 4.0 0.00 0.00 0.00 47 1014.0
20260905191507 96 132 0.0 3.0 0.00 0.00 0.00 47 1014.0
20260905191006 95 36 0.0 2.0 0.00 0.00 0.00 48 1014.0
20260905190504 95 98 1.0 2.0 0.00 0.00 0.00 46 1014.0
20260905190003 95 158 2.0 3.0 0.00 0.00 0.00 47 1013.9
20260905185458 95 139 2.0 4.0 0.00 0.00 0.00 48 1014.2
20260905184957 95 91 2.0 3.0 0.00 0.00 0.00 49 1014.1
20260905184452 95 166 2.0 4.0 0.00 0.00 0.00 50 1014.2
20260905183950 95 154 3.0 4.0 0.00 0.00 0.00 50 1014.3
20260905183445 95 129 2.0 5.0 0.00 0.00 0.00 49 1014.4
20260905182940 95 166 3.0 4.0 0.00 0.00 0.00 50 1014.3
20260905182439 95 157 3.0 4.0 0.00 0.00 0.00 51 1014.5
20260905181935 95 152 3.0 3.0 0.00 0.00 0.00 51 1014.4
20260905181435 95 171 3.0 4.0 0.00 0.00 0.00 51 1014.3
20260905180934 96 165 5.0 6.0 0.00 0.00 0.00 50 1014.4
20260905180429 96 166 3.0 6.0 0.00 0.00 0.00 50 1014.6
20260905175924 96 183 7.0 7.0 0.00 0.00 0.00 50 1014.7
20260905175423 96 158 6.0 6.0 0.00 0.00 0.00 52 1014.8
20260905174919 96 151 3.0 5.0 0.00 0.00 0.00 50 1014.8
20260905174415 96 159 5.0 7.0 0.00 0.00 0.00 51 1014.9
20260905173910 95 175 4.0 4.0 0.00 0.00 0.00 51 1015.2